Weather History for Tallahassee, FL

Change the Weather History Date:

Saturday, April 6, 2013

  Actual Average Record
Temperature  
Mean Temperature 59 °F 64 °F  
Max Temperature 78 °F 78 °F 91 °F (1927)
Min Temperature 40 °F 50 °F 32 °F (1987)
Degree Days  
Heating Degree Days 6    
Month to date heating degree days 21  
Since 1 July heating degree days 1307  
Cooling Degree Days 0    
Month to date cooling degree days 12  
Year to date cooling degree days 80  
Growing Degree Days 8 (Base 50)    
Moisture  
Dew Point 41 °F    
Average Humidity 57    
Maximum Humidity 89    
Minimum Humidity 25    
Precipitation  
Precipitation 0.00 in 0.13 in 2.65 in (1953)
Month to date precipitation 0.25 0.77  
Year to date precipitation 17.81 15.90  
Sea Level Pressure  
Sea Level Pressure 30.12 in    
Wind  
Wind Speed 6 mph (ENE)    
Max Wind Speed 16 mph    
Max Gust Speed 21 mph    
Visibility 10 miles    
Events Fog    
T = Trace of Precipitation, MM = Missing Value Source: NWS Daily Summary

Daily Weather History Graph

Daily Weather History Graph

Search for Another Location

Airport:

Trip Planner

Search our weather history database for the weather conditions in past years. The results will help you decide how hot, cold, wet, or windy it might be!

Date:

Astronomy

Apr. 06, 2013 Rise Set
Actual Time 7:20 AM EDT 7:59 PM EDT
Civil Twilight 6:55 AM EDT 8:23 PM EDT
Nautical Twilight 6:27 AM EDT 8:52 PM EDT
Astronomical Twilight 5:58 AM EDT 9:21 PM EDT
Moon 4:48 AM EDT (4/6) 4:40 PM EDT (4/6)
Length of Visible Light 13h 27m
Length of Day
12h 39m
Waning Crescent, 15% of the Moon is Illuminated
Apr 6
Waning Crescent
Apr 10
New
Apr 18
First Quarter
Apr 25
Full
May 2
Last Quarter

Hourly Weather History & Observations

Time (EDT) Temp. Windchill Dew Point Humidity Pressure Visibility Wind Dir Wind Speed Gust Speed Precip Events Conditions
12:53 AM 46.0 °F - 42.1 °F 86% 30.07 in 10.0 mi Calm Calm - N/A   Clear
1:53 AM 45.0 °F - 41.0 °F 86% 30.09 in 10.0 mi Calm Calm - N/A   Clear
2:53 AM 45.0 °F - 39.9 °F 82% 30.09 in 10.0 mi Calm Calm - N/A   Clear
3:53 AM 43.0 °F 41.3 °F 39.0 °F 86% 30.09 in 10.0 mi West 3.5 mph - N/A   Clear
4:53 AM 42.1 °F - 39.0 °F 89% 30.10 in 10.0 mi Calm Calm - N/A   Clear
5:53 AM 42.1 °F 39.2 °F 37.9 °F 85% 30.09 in 10.0 mi Variable 4.6 mph - N/A   Clear
6:53 AM 42.1 °F 39.2 °F 37.9 °F 85% 30.12 in 10.0 mi Variable 4.6 mph - N/A   Clear
7:53 AM 41.0 °F - 37.9 °F 89% 30.14 in 10.0 mi Calm Calm - N/A Fog Patches of Fog
8:53 AM 52.0 °F - 46.0 °F 80% 30.15 in 10.0 mi Variable 4.6 mph - N/A   Clear
9:53 AM 61.0 °F - 46.0 °F 58% 30.15 in 10.0 mi ENE 6.9 mph - N/A   Clear
10:53 AM 66.0 °F - 43.0 °F 43% 30.15 in 10.0 mi ENE 16.1 mph 20.7 mph N/A   Clear
11:53 AM 69.1 °F - 42.1 °F 38% 30.17 in 10.0 mi East 12.7 mph 20.7 mph N/A   Clear
12:53 PM 71.1 °F - 39.9 °F 32% 30.16 in 10.0 mi ENE 12.7 mph 20.7 mph N/A   Clear
1:53 PM 73.9 °F - 39.9 °F 29% 30.15 in 10.0 mi East 11.5 mph - N/A   Clear
2:53 PM 75.0 °F - 39.9 °F 28% 30.12 in 10.0 mi NE 9.2 mph - N/A   Clear
3:53 PM 75.9 °F - 37.0 °F 24% 30.11 in 10.0 mi Variable 3.5 mph - N/A   Clear
4:53 PM 75.9 °F - 39.0 °F 26% 30.09 in 10.0 mi Variable 6.9 mph - N/A   Clear
5:53 PM 77.0 °F - 39.0 °F 25% 30.09 in 10.0 mi East 9.2 mph 18.4 mph N/A   Clear
6:53 PM 75.0 °F - 39.0 °F 27% 30.10 in 10.0 mi ESE 4.6 mph - N/A   Clear
7:53 PM 73.0 °F - 39.9 °F 30% 30.11 in 10.0 mi ENE 4.6 mph - N/A   Clear
8:53 PM 64.9 °F - 44.1 °F 47% 30.12 in 10.0 mi East 4.6 mph - N/A   Clear
9:53 PM 59.0 °F - 45.0 °F 60% 30.13 in 10.0 mi Calm Calm - N/A   Clear
10:53 PM 59.0 °F - 46.9 °F 64% 30.14 in 10.0 mi Calm Calm - N/A   Clear
11:53 PM 62.1 °F - 45.0 °F 53% 30.14 in 10.0 mi ESE 10.4 mph - N/A   Clear